CAPE
76 189 3 35 204 630 1228 1193 950 886 950 795 787 748 803 696 502 437 462 671 893 1315 1528 1549 1557 1638 1603 1402 1402 1189 915 930 868 1126 1309 1481 1136 1055 1170 979 700 858 864
132 219 13 40 166 523 1137 1129 868 1132 1191 932 928 856 798 674 532 428 518 823 1111 1369 1514 1516 1398 1385 1300 1087 1062 1187 1251 1137 901 854 1010 1313 1256 1338 1505 1013 660 954 1335
253 429 81 37 141 403 1049 1361 1254 1365 1296 1020 987 912 785 699 547 508 652 843 1089 1279 1523 1447 1226 1081 1200 1171 1186 1244 1198 1196 1265 1173 1048 738 784 1067 1213 952 692 807 1017
540 858 151 66 162 314 889 1372 1462 1436 1222 1088 1011 884 821 692 574 616 746 800 930 1166 1458 1429 1172 938 937 1000 945 967 974 824 963 1231 1563 1036 660 1201 948 925 894 743 653
536 1051 541 81 154 238 684 1231 1535 1455 1199 1071 925 798 816 681 656 704 793 833 801 844 1294 1522 1129 772 606 615 626 599 602 542 909 1279 1258 1109 877 967 1115 1059 515 862 947
485 946 864 84 114 157 425 1098 1479 1335 1129 1051 826 807 783 690 753 847 900 1048 1130 914 774 978 961 794 686 754 574 410 421 460 650 1345 1089 1124 1243 830 1091 1621 1033 679 120
398 1568 1349 122 144 148 217 906 1226 1126 1079 905 711 722 657 692 809 858 1054 1305 1335 1155 682 268 181 258 308 315 296 239 194 245 433 1102 966 1098 1615 881 1070 1161 969 729 461
477 1194 1773 356 269 194 152 329 819 932 833 655 634 594 611 703 759 906 1243 1529 1432 1126 668 393 256 208 195 206 206 197 217 216 779 1089 1206 1668 1339 1010 1205 921 930 943 801
699 1193 1577 969 622 339 277 211 262 381 479 584 609 691 857 950 963 1024 1246 1584 1608 1382 1024 708 567 481 449 405 361 365 417 367 530 1127 1031 1780 1316 1073 1347 1037 1022 1049 878
753 1320 1645 1382 1006 941 884 502 437 381 465 615 719 781 917 1098 1197 1337 1670 1535 1638 1630 1465 1143 817 675 684 694 724 800 723 548 421 732 689 1418 1221 1229 1553 1067 962 1024 1054
491 932 1602 1676 1504 1267 1158 1055 687 658 691 842 998 1099 1160 1207 1407 1645 1402 1544 1380 1522 1523 1435 1258 1086 996 953 917 883 833 897 1033 1160 1231 1087 1102 1316 1434 1050 933 1038 1024
310 384 783 1176 1366 1456 999 1545 1293 1311 1051 1052 1117 1455 1435 1302 1448 1353 1430 1427 1289 1439 1405 1251 1094 937 735 879 1095 749 880 708 1590 1482 1327 1228 1062 1304 1336 1145 1056 1002 937
740 348 585 966 1101 986 386 1293 1034 1181 1322 1485 1587 1729 1468 1506 1517 1185 1365 1359 1342 1213 1294 938 924 967 1209 1230 1240 1235 1460 1447 1544 1575 963 1048 1207 1193 1527 1127 944 764 638
1055 602 707 1035 1342 1320 837 1145 987 1018 1119 1684 1845 2082 1629 1345 1543 1231 1102 955 1045 922 1259 1475 1232 1182 1030 1090 994 1024 1270 1290 1449 1534 911 951 1100 1127 1222 1012 660 412 224
895 978 908 974 1188 1243 1197 1227 1242 1167 1380 1456 1796 1783 1551 1349 1161 1344 984 852 702 1036 634 467 352 394 441 403 793 895 930 1024 1002 875 282 375 633 632 726 546 222 117 29
807 1122 1123 1286 1036 1089 1195 1268 1506 1332 1335 1310 1030 627 1069 1114 928 758 496 331 256 204 238 257 537 340 381 552 633 710 501 160 80 23 6 18 173 213 271 159 52 13 4
744 1386 1565 1513 1223 1275 1061 1056 987 1376 907 144 4 3 34 61 26 0 0 15 93 112 148 226 319 233 260 494 264 51 4 3 4 3 4 3 0 0 0 3 5 4 5
500 1315 2193 1712 1565 1339 753 871 727 140 9 0 0 0 0 0 0 0 0 0 37 58 104 132 121 155 217 330 29 2 3 1 1 2 3 3 3 0 0 0 1 2 4
33 1313 2282 1815 1458 1053 864 1 1 1 1 2 0 0 0 0 0 0 0 4 29 63 43 57 58 108 79 61 1 3 4 4 2 0 1 1 0 0 0 0 0 0 0
0 2089 1909 1281 927 60 1 3 3 2 2 0 3 0 0 0 0 0 0 0 38 13 5 15 33 42 39 15 0 3 1 2 2 1 1 0 0 0 0 0 0 0 0
1987 1871 1197 613 21 0 2 1 3 2 3 3 0 0 0 0 0 0 0 0 0 0 14 4 41 38 49 0 0 5 2 1 0 1 0 0 1 0 1 1 0 0 0
480 286 255 121 2 3 3 3 2 3 3 0 0 0 0 0 0 0 0 0 0 0 0 0 9 7 28 1 1 1 0 0 1 1 0 0 0 0 0 0 0 0 0
68 43 36 11 2 12 58 37 0 0 0 0 0 0 0 0 0 0 0 0 0 0 0 0 0 0 0 23 4 27 3 1 1 1 0 0 0 0 0 0 0 0 0
5 5 5 2 0 8 219 231 172 145 0 0 0 0 0 0 0 0 0 0 0 0 0 0 0 0 0 1 18 22 31 0 3 0 0 0 0 0 0 0 0 0 0
3 2 4 1 0 49 377 418 363 392 36 1 1 0 0 0 0 0 0 0 0 0 0 0 0 0 0 0 0 11 13 26 39 8 0 0 0 0 0 0 0 0 0
65 127 49 66 191 369 492 573 495 345 137 52 7 4 1 0 0 0 0 0 0 0 0 0 0 0 0 0 0 0 0 7 9 12 12 0 0 0 0 0 0 0 0
CIN
-277 -513 -535 -727 -525 -353 -232 -194 -175 -153 -140 -145 -132 -137 -136 -146 -175 -180 -171 -131 -105 -47 -22 -25 -29 -18 -26 -54 -51 -65 -89 -89 -113 -70 -45 -11 -22 -16 -10 -15 -13 -2 -4
-315 -516 -848 -759 -571 -384 -236 -201 -198 -128 -105 -128 -118 -121 -133 -155 -173 -184 -164 -118 -83 -55 -29 -30 -49 -48 -46 -82 -88 -62 -57 -66 -85 -108 -73 -31 -16 -7 -5 -14 -25 -11 -1
-319 -435 -730 -749 -576 -412 -237 -164 -144 -103 -101 -121 -114 -117 -130 -153 -174 -173 -152 -116 -90 -70 -31 -31 -63 -85 -64 -64 -71 -60 -62 -69 -62 -66 -63 -19 -54 -37 -16 -29 -57 -39 -9
-284 -323 -560 -709 -555 -432 -246 -154 -113 -96 -101 -117 -122 -120 -125 -144 -161 -155 -132 -122 -102 -71 -44 -36 -60 -92 -104 -80 -97 -91 -86 -97 -77 -67 -50 -12 -54 -43 -53 -46 -42 -56 -49
-302 -261 -368 -666 -530 -429 -264 -170 -114 -100 -117 -126 -130 -130 -120 -138 -138 -132 -116 -103 -109 -102 -53 -34 -60 -103 -137 -135 -109 -132 -125 -116 -71 -64 -5 -2 -16 -73 -53 -35 -86 -44 -31
-275 -230 -335 -623 -535 -448 -317 -181 -115 -112 -115 -123 -131 -121 -120 -132 -119 -104 -93 -77 -57 -84 -101 -83 -90 -97 -112 -103 -122 -151 -153 -122 -104 -11 -2 -3 -6 -81 -56 -10 -33 -54 -180
-291 -189 -267 -595 -521 -462 -379 -198 -125 -119 -108 -119 -140 -125 -125 -115 -104 -98 -73 -37 -45 -55 -113 -196 -236 -219 -195 -187 -184 -174 -197 -169 -119 -10 -1 -8 -28 -63 -57 -45 -59 -71 -90
-305 -218 -224 -483 -470 -447 -396 -297 -174 -128 -126 -143 -132 -130 -119 -101 -85 -64 -35 -14 -27 -60 -118 -168 -204 -228 -228 -230 -219 -221 -188 -174 -44 0 -1 -8 -46 -55 -46 -67 -62 -52 -54
-305 -246 -247 -328 -358 -386 -362 -330 -274 -218 -188 -150 -135 -115 -84 -64 -50 -47 -25 -4 -5 -26 -56 -100 -123 -133 -145 -157 -175 -176 -155 -145 -90 -1 -2 -6 -69 -58 -37 -49 -45 -41 -51
-301 -234 -208 -219 -249 -231 -217 -260 -245 -235 -188 -147 -110 -96 -70 -40 -28 -13 -2 -2 -2 -2 -10 -32 -68 -88 -85 -82 -88 -87 -106 -115 -85 -4 -4 -40 -66 -51 -19 -31 -35 -27 -24
-335 -260 -167 -140 -139 -148 -138 -150 -196 -159 -123 -94 -66 -51 -38 -7 -2 -2 -2 -4 -7 -2 -1 -3 -10 -30 -41 -51 -61 -67 -77 -36 -7 -1 -41 -44 -64 -36 -16 -28 -29 -20 -18
-312 -316 -214 -152 -126 -89 -93 -55 -46 -22 -42 -43 -28 -9 -2 -1 -4 -3 -3 -12 -11 -3 -4 -14 -26 -36 -58 -15 -38 -64 -39 -14 -2 -2 -50 -31 -55 -23 -11 -22 -25 -18 -17
-139 -259 -203 -170 -136 -118 -112 -44 -35 -10 -5 -6 -1 0 -1 -2 -6 -6 -8 -2 0 -9 -1 -21 -22 -22 -2 -5 -7 -1 -1 -2 -6 -4 -40 -45 -39 -18 -1 -14 -13 -15 -21
-40 -119 -147 -113 -78 -70 -52 -26 -11 -3 -2 -1 -1 0 -7 -9 -5 -2 -5 -10 -7 -17 -4 -3 -8 -24 -10 -1 -1 -1 0 -1 -1 0 -36 -26 -9 -8 0 -4 -22 -29 -50
-29 -34 -77 -109 -89 -79 -44 -25 -3 -3 -2 -1 -2 -3 -8 -2 -4 -1 -11 -17 -18 -8 -1 -3 -3 -13 -3 -5 -1 -2 -1 -1 -6 -20 -71 -49 -9 -3 -2 -1 -41 -82 -146
-14 -5 -28 -99 -87 -92 -53 -44 -25 -10 -4 -8 -13 -61 -5 -1 -1 -1 -4 -5 -13 -7 -12 -10 -12 -8 -5 -3 -3 0 -1 -63 -126 -146 -32 -37 -49 -14 -15 -39 -81 -43 0
-13 -3 -30 -78 -84 -70 -94 -103 -60 -30 -87 -296 -22 -19 -244 -204 -191 -20 0 -31 -4 -12 -25 -19 -17 -15 -20 -5 -22 -156 -12 0 0 0 0 0 0 0 0 0 0 0 0
-14 -3 -31 -77 -68 -66 -154 -119 -133 -307 -350 0 0 0 0 0 0 0 0 -6 -43 -11 -43 -54 -51 -27 -16 -32 -191 0 0 0 0 0 0 0 0 0 0 0 0 0 0
-183 -6 -49 -84 -67 -80 -134 0 0 0 0 0 0 0 0 0 0 0 0 -11 -41 -39 -77 -86 -110 -48 -36 -99 0 0 0 0 0 0 0 0 0 0 0 0 0 0 0
0 -13 -83 -130 -137 -131 0 0 0 0 0 0 0 0 0 0 0 0 0 0 -7 -48 -96 -109 -88 -103 -58 -130 0 0 0 0 0 0 0 0 -1 0 0 0 0 0 0
-68 -62 -130 -230 -196 0 0 0 0 0 0 0 0 0 0 0 0 0 0 0 0 -9 -122 -117 -42 -70 -28 0 0 0 0 0 0 0 0 0 0 0 0 0 0 0 0
-265 -344 -348 -407 0 0 -159 -132 0 0 0 0 0 0 0 0 0 0 0 0 0 0 0 0 -47 -55 -29 -1 -26 -2 0 0 0 0 0 0 0 0 0 0 0 0 0
-424 -472 -502 -253 0 -456 -428 -435 -96 0 0 0 0 0 0 0 0 0 0 0 0 0 0 0 0 0 0 -2 -42 -18 -3 0 0 0 0 0 0 0 0 0 0 0 0
0 0 0 0 0 -382 -263 -246 -262 -239 0 0 0 0 0 0 0 0 0 0 0 0 0 0 0 0 0 -1 -2 -12 -4 -9 0 0 0 0 0 0 0 0 0 0 0
0 0 0 0 0 -412 -124 -83 -64 -33 -275 -18 -7 0 0 0 0 0 0 0 0 0 0 0 0 0 0 0 0 -3 -8 -7 -5 -5 -1 0 0 0 0 0 0 0 0
-305 -289 -391 -393 -274 -130 -46 -9 -9 -28 -89 -67 -40 -2 -1 0 0 0 0 0 0 0 0 0 0 0 0 0 0 0 -1 -1 -9 -5 -2 0 0 0 0 0 0 0 0
Wind_Speed
16 18 20 20 19 19 19 19 19 19 18 18 18 18 19 19 20 21 22 23 23 23 23 23 23 23 22 22 22 22 22 22 22 21 21 20 19 18 14 14 20 18 18
15 17 19 18 18 18 18 18 18 17 17 17 17 17 17 18 18 19 20 21 21 22 22 22 23 22 22 22 22 21 21 21 21 21 21 20 19 18 16 15 15 17 17
16 18 18 18 17 16 17 16 16 16 16 16 16 15 15 16 16 17 18 19 19 20 21 21 21 22 22 21 21 20 20 20 20 20 21 20 19 18 16 16 16 15 15
16 16 17 17 16 16 16 15 15 15 14 15 15 14 14 14 14 15 15 16 17 18 19 19 20 20 20 20 20 19 18 18 18 17 16 15 17 17 16 16 16 15 14
15 15 15 15 14 14 13 13 13 13 13 13 13 12 12 12 12 12 13 14 15 16 16 17 17 18 18 18 18 18 17 16 16 15 14 15 15 15 15 15 15 14 13
14 14 13 13 12 12 12 12 12 12 11 11 10 10 10 10 10 10 11 12 13 13 14 14 15 15 16 16 16 16 15 14 13 10 15 13 13 13 13 13 12 13 13
12 12 11 11 11 11 11 10 10 10 9 9 8 8 8 8 8 8 9 10 10 11 11 12 12 13 13 13 14 13 13 12 10 8 12 11 12 11 11 11 11 11 12
10 10 9 10 9 10 9 9 8 8 7 6 6 6 6 6 6 7 7 8 8 9 9 10 10 10 11 11 11 11 11 10 9 13 13 11 10 10 9 9 9 9 10
8 8 7 7 7 7 6 6 6 5 5 4 4 4 4 4 5 6 7 7 7 7 8 9 9 10 10 10 10 10 10 10 8 7 11 9 8 8 8 8 8 7 8
6 6 5 4 4 3 3 3 4 3 3 2 2 2 3 5 6 7 7 9 9 8 8 9 10 10 10 11 11 11 11 9 6 6 7 9 7 7 6 6 7 7 7
5 4 3 3 2 2 2 2 2 1 2 2 2 3 4 5 6 7 7 7 10 10 10 10 11 11 12 11 10 10 11 9 6 11 15 10 9 6 7 6 7 9 9
3 2 2 2 2 2 3 3 2 3 3 4 4 5 6 6 7 9 8 8 10 11 12 12 13 13 13 13 10 11 11 9 14 18 15 11 10 6 8 8 8 10 11
3 1 1 2 2 2 3 5 3 3 3 4 5 5 7 10 12 12 12 12 12 12 13 11 13 13 14 18 12 16 17 19 19 18 20 10 6 5 5 7 8 10 10
4 2 2 3 3 4 5 5 4 5 5 7 7 8 11 11 11 13 15 16 14 13 14 12 13 12 14 18 18 17 17 17 17 17 17 11 7 5 3 4 7 10 10
6 4 3 3 4 4 5 5 6 6 7 7 8 10 12 11 12 18 19 18 16 12 15 17 17 20 18 19 20 19 18 17 18 16 17 14 10 7 5 7 7 7 9
8 5 2 3 4 3 3 6 6 6 9 11 13 17 18 19 21 25 28 22 19 18 19 19 19 17 15 18 18 18 18 17 17 16 14 13 12 10 10 9 10 9 10
9 6 0 2 3 2 3 4 5 8 9 10 13 16 19 19 21 19 26 28 23 20 18 19 17 17 17 16 17 17 18 18 16 14 13 12 11 11 11 11 11 12 12
9 5 3 3 2 4 4 4 8 7 7 8 8 10 19 19 16 24 22 27 27 23 18 19 18 18 17 17 17 18 17 16 15 14 12 11 10 11 12 12 13 14 14
9 4 3 4 3 3 5 8 7 8 9 9 9 9 11 9 10 17 12 12 21 17 18 18 17 17 15 16 17 18 18 17 14 12 12 11 10 10 11 13 16 17 16
9 6 5 6 5 6 7 7 8 9 9 9 10 10 11 10 12 13 13 9 5 9 12 15 16 16 15 15 17 16 16 17 16 13 12 13 10 10 11 13 15 17 17
12 8 7 7 5 4 5 5 6 7 7 8 9 10 12 12 12 14 10 7 8 9 11 11 13 14 12 13 18 17 18 18 18 18 16 14 13 15 15 14 14 14 15
12 10 8 6 5 4 4 5 7 8 9 10 10 11 14 12 13 12 11 9 10 10 12 11 8 15 10 9 20 17 21 20 20 20 19 18 17 16 16 15 15 16 15
12 11 9 8 7 6 6 7 8 9 9 10 10 13 12 12 13 14 13 12 13 11 13 13 16 18 21 14 15 19 21 21 20 20 20 20 19 17 17 16 15 15 16
14 13 11 9 7 7 7 6 5 8 9 11 12 13 12 13 13 13 14 15 15 16 16 15 14 18 16 17 16 17 23 19 21 22 23 23 21 19 18 17 16 15 15
13 12 11 9 8 8 8 8 8 11 11 11 11 12 12 13 13 13 13 14 15 16 17 18 19 18 18 19 21 20 20 23 23 24 26 23 23 23 20 19 18 18 16
12 12 11 10 9 9 8 8 9 10 11 12 12 11 12 14 14 13 14 15 16 18 18 18 18 19 20 21 22 24 24 24 25 26 28 24 24 24 22 22 20 19 18
Wind_Direction
80 102 113 107 102 98 98 105 107 106 103 103 99 93 85 79 74 73 71 68 64 64 65 64 63 62 59 56 55 53 55 56 58 56 55 51 48 42 14 18 57 40 47
88 108 115 109 101 98 97 103 107 105 104 104 101 94 85 78 73 71 70 69 65 64 66 67 67 66 64 61 60 58 56 56 61 65 65 56 51 45 23 23 30 41 39
103 113 117 109 103 96 95 100 105 105 103 104 101 95 85 78 72 69 69 67 64 62 63 65 65 66 69 67 61 58 58 60 70 74 89 56 54 46 32 29 34 32 33
94 106 115 112 104 98 96 96 101 104 103 104 102 96 86 77 70 66 65 64 60 59 60 61 64 68 69 70 67 60 56 63 74 79 97 74 53 53 40 37 37 35 34
88 99 106 112 101 96 93 95 101 105 106 104 101 96 86 75 68 63 61 60 57 55 57 59 60 64 66 68 66 61 59 63 101 101 70 29 53 54 47 45 44 33 27
83 94 98 110 103 101 99 99 99 103 102 99 96 91 86 77 67 61 56 55 55 52 51 52 54 58 61 64 64 61 62 89 122 118 18 29 27 51 51 35 26 18 23
82 73 88 113 110 107 103 101 98 99 98 96 94 88 81 71 61 56 51 48 52 47 41 43 47 53 55 58 62 66 68 85 110 139 41 44 25 42 43 31 28 19 20
69 65 74 113 112 111 105 105 101 99 96 92 85 77 70 56 44 35 33 34 39 35 31 33 35 36 37 45 47 50 58 78 96 25 19 17 46 40 36 30 28 26 20
60 58 69 104 110 106 102 100 97 99 100 97 91 75 43 25 16 11 8 5 13 21 14 16 18 16 18 21 26 25 25 21 41 55 8 18 37 37 30 26 23 23 19
45 47 60 83 86 83 65 86 92 101 101 89 71 33 1 348 344 340 346 339 342 350 357 358 357 357 358 357 359 360 3 9 22 34 25 11 23 16 24 11 1 3 6
14 21 42 58 65 58 45 31 28 30 2 351 345 340 334 331 329 325 324 326 325 331 338 340 340 341 343 345 350 353 348 354 2 343 343 3 354 345 338 343 340 332 332
352 8 11 15 21 24 4 4 343 352 330 317 317 316 310 311 318 310 311 319 319 320 323 325 328 331 333 334 340 345 342 343 338 325 332 341 338 330 320 321 325 324 318
322 341 352 338 347 344 346 354 346 350 326 314 303 304 308 311 314 306 310 311 310 311 314 323 327 330 329 325 342 336 332 327 325 320 328 346 356 334 331 326 322 324 326
333 295 323 330 323 318 335 337 343 339 335 329 318 313 309 313 312 305 303 305 305 307 315 319 323 328 332 329 334 335 339 339 336 334 339 354 12 32 16 345 327 319 326
331 314 314 325 315 312 324 337 337 337 341 331 330 315 310 313 312 306 302 300 301 314 318 318 321 320 327 326 331 331 338 346 342 342 340 346 1 10 44 39 19 358 328
331 321 322 324 317 321 322 339 338 338 347 345 339 326 317 319 319 311 303 304 296 310 316 314 319 325 336 335 339 343 342 346 346 346 349 354 6 24 37 30 22 16 343
334 339 300 342 350 341 328 342 347 349 350 347 341 332 322 322 327 338 321 305 313 320 318 313 318 317 327 336 343 344 341 344 350 350 351 0 9 11 13 4 358 353 343
340 349 17 9 355 348 353 358 359 16 10 4 359 359 323 322 335 327 331 316 306 306 321 310 311 313 326 330 341 339 340 344 351 350 352 353 356 2 5 356 350 345 340
337 352 19 4 356 18 3 359 18 23 20 22 24 38 13 355 359 358 2 352 298 316 319 313 316 313 318 325 332 333 332 333 340 348 345 343 351 356 354 350 341 334 331
355 22 15 8 7 357 1 19 28 40 36 40 29 21 31 24 15 25 31 45 50 2 333 324 322 316 317 318 327 335 335 327 330 330 328 327 331 336 335 339 336 331 330
3 18 14 9 20 30 36 36 25 27 28 25 15 9 17 11 10 359 19 30 6 5 354 342 325 327 323 324 322 330 328 326 320 319 315 314 318 319 321 328 331 334 331
3 4 14 24 25 34 38 23 16 24 15 8 11 10 5 9 1 5 2 5 355 1 339 336 338 322 322 313 311 319 315 313 311 308 305 304 307 312 315 322 324 321 325
12 15 20 14 16 24 50 36 34 28 18 13 11 1 4 3 2 1 2 1 347 341 333 314 311 311 309 308 299 309 318 308 306 303 301 302 303 305 308 312 318 321 322
13 9 12 20 36 57 72 60 53 6 1 358 1 4 6 5 2 2 354 346 341 337 333 326 319 314 310 305 308 301 303 318 308 305 298 296 296 298 300 305 311 315 316
21 22 24 32 48 64 62 58 43 5 2 8 6 6 2 359 359 1 2 2 354 346 341 332 325 321 314 308 305 308 305 302 303 307 300 295 292 291 293 295 300 301 309
16 21 32 45 56 55 51 35 19 11 8 3 1 359 354 349 350 353 356 357 353 349 342 337 332 323 316 312 309 304 302 301 299 298 299 300 293 288 289 291 292 295 301